| time (UTC) | temp F | wind direction | speed knots | gust knots | rain 1hr in | rain 24hr in | rain mn in | humidity % | barometer mb |
| 20260506025505 | 42 | 302 | 7.0 | 13.0 | 0.03 | 0.11 | 0.11 | 89 | 1019.8 |
| 20260506025004 | 42 | 10 | 7.8 | 13.0 | 0.02 | 0.10 | 0.10 | 89 | 1019.6 |
| 20260506024504 | 42 | 301 | 7.8 | 13.0 | 0.02 | 0.09 | 0.09 | 88 | 1018.7 |
| 20260506024225 | 42 | 17 | 6.1 | 11.3 | 0.03 | 0.09 | 0.09 | 88 | 1018.0 |
| 20260506023505 | 42 | 16 | 4.3 | 8.7 | 0.05 | 0.09 | 0.09 | 87 | 1017.9 |
| 20260506023006 | 42 | 19 | 3.5 | 5.2 | 0.06 | 0.08 | 0.08 | 87 | 1017.9 |
| 20260506022504 | 42 | 47 | 4.3 | 8.7 | 0.08 | 0.08 | 0.08 | 86 | 1017.9 |
| 20260506022004 | 42 | 26 | 5.2 | 8.7 | 0.08 | 0.08 | 0.08 | 86 | 1018.0 |
| 20260506021503 | 42 | 28 | 4.3 | 7.8 | 0.08 | 0.08 | 0.08 | 85 | 1018.0 |
| 20260506020958 | 42 | 5 | 3.5 | 6.1 | 0.08 | 0.08 | 0.08 | 85 | 1018.1 |
| 20260506020451 | 43 | 49 | 3.5 | 7.0 | 0.08 | 0.08 | 0.08 | 85 | 1018.0 |
| 20260506015945 | 43 | 27 | 4.3 | 9.6 | 0.08 | 0.08 | 0.08 | 85 | 1018.0 |
| 20260506015440 | 43 | 0 | 7.0 | 16.5 | 0.08 | 0.08 | 0.08 | 85 | 1017.7 |
| 20260506014934 | 43 | 19 | 7.8 | 16.5 | 0.08 | 0.08 | 0.08 | 85 | 1017.6 |
| 20260506014428 | 44 | 307 | 9.6 | 23.5 | 0.07 | 0.07 | 0.07 | 82 | 1018.4 |
| 20260506013922 | 45 | 279 | 11.3 | 23.5 | 0.06 | 0.06 | 0.06 | 77 | 1018.4 |
| 20260506013635 | 47 | 290 | 10.4 | 25.2 | 0.03 | 0.03 | 0.04 | 70 | 1018.2 |
| 20260506012910 | 50 | 182 | 8.7 | 25.2 | 0.01 | 0.01 | 0.02 | 62 | 1017.7 |
| 20260506012627 | 52 | 285 | 6.1 | 13.0 | 0.00 | 0.00 | 0.00 | 52 | 1017.1 |
| 20260506011858 | 53 | 261 | 6.1 | 12.2 | 0.00 | 0.00 | 0.00 | 50 | 1016.6 |
| 20260506011351 | 53 | 244 | 6.1 | 13.0 | 0.00 | 0.00 | 0.00 | 47 | 1016.5 |
| 20260506011107 | 53 | 234 | 6.1 | 13.0 | 0.00 | 0.00 | 0.00 | 46 | 1016.7 |
| 20260506010340 | 54 | 216 | 5.2 | 10.4 | 0.00 | 0.00 | 0.00 | 45 | 1016.9 |
| 20260506010257 | 56 | 262 | 7.0 | 15.6 | 0.00 | 0.00 | 0.00 | 44 | 1016.7 |
| 20260506005915 | 55 | 225 | 5.2 | 9.6 | 0.00 | 0.00 | 0.00 | 45 | 1016.7 |
| 20260506004822 | 56 | 307 | 8.7 | 15.6 | 0.00 | 0.00 | 0.00 | 42 | 1016.7 |
| 20260506004316 | 57 | 273 | 8.7 | 15.6 | 0.00 | 0.00 | 0.00 | 41 | 1016.7 |
| 20260506004033 | 58 | 252 | 7.8 | 15.6 | 0.00 | 0.00 | 0.00 | 40 | 1016.7 |
| 20260506003304 | 58 | 243 | 7.0 | 14.8 | 0.00 | 0.00 | 0.00 | 42 | 1016.7 |
| 20260506002959 | 58 | 252 | 6.1 | 12.2 | 0.00 | 0.00 | 0.00 | 42 | 1016.7 |
| 20260506002842 | 58 | 212 | 7.0 | 14.8 | 0.00 | 0.00 | 0.00 | 42 | 1016.7 |
| 20260506002226 | 58 | 237 | 7.8 | 15.6 | 0.00 | 0.00 | 0.00 | 42 | 1016.7 |
| 20260506001239 | 58 | 170 | 8.7 | 15.6 | 0.00 | 0.00 | 0.00 | 42 | 1016.7 |
| 20260506000734 | 58 | 269 | 8.7 | 14.8 | 0.00 | 0.00 | 0.00 | 43 | 1016.6 |
| 20260506000228 | 58 | 213 | 9.6 | 20.9 | 0.00 | 0.00 | 0.00 | 43 | 1016.7 |
| 20260505235721 | 57 | 0 | 10.4 | 20.9 | 0.00 | 0.00 | 0.00 | 45 | 1016.7 |
| 20260505235438 | 57 | 213 | 8.7 | 20.0 | 0.00 | 0.00 | 0.00 | 44 | 1016.7 |
| 20260505234709 | 57 | 280 | 7.8 | 13.9 | 0.00 | 0.00 | 0.00 | 46 | 1016.7 |
| 20260505234428 | 55 | 259 | 9.6 | 16.5 | 0.00 | 0.00 | 0.00 | 47 | 1016.6 |
| 20260505233658 | 54 | 252 | 10.4 | 16.5 | 0.00 | 0.00 | 0.00 | 49 | 1016.7 |
| 20260505233152 | 54 | 200 | 9.6 | 16.5 | 0.00 | 0.00 | 0.00 | 48 | 1016.7 |
| 20260505232645 | 54 | 207 | 8.7 | 19.1 | 0.00 | 0.00 | 0.00 | 48 | 1016.9 |
| 20260505232140 | 55 | 184 | 10.4 | 20.0 | 0.00 | 0.00 | 0.00 | 47 | 1016.7 |
| 20260505231633 | 55 | 231 | 9.6 | 20.0 | 0.00 | 0.00 | 0.00 | 46 | 1016.7 |
| 20260505231127 | 56 | 268 | 10.4 | 20.9 | 0.00 | 0.00 | 0.00 | 46 | 1016.6 |
| 20260505230842 | 56 | 205 | 9.6 | 20.9 | 0.00 | 0.00 | 0.00 | 46 | 1016.6 |
| 20260505230115 | 56 | 189 | 9.6 | 21.7 | 0.00 | 0.00 | 0.00 | 46 | 1016.5 |
| 20260505225609 | 56 | 197 | 8.7 | 21.7 | 0.00 | 0.00 | 0.00 | 45 | 1016.6 |
| 20260505225104 | 56 | 246 | 7.0 | 18.2 | 0.00 | 0.00 | 0.00 | 46 | 1016.5 |
| 20260505224558 | 56 | 233 | 10.4 | 20.0 | 0.00 | 0.00 | 0.00 | 45 | 1016.4 |
| 20260505224052 | 57 | 157 | 10.4 | 20.9 | 0.00 | 0.00 | 0.00 | 44 | 1016.6 |
| 20260505223546 | 57 | 140 | 8.7 | 20.9 | 0.00 | 0.00 | 0.00 | 43 | 1016.4 |
| 20260505223040 | 58 | 241 | 8.7 | 17.4 | 0.00 | 0.00 | 0.00 | 42 | 1016.6 |
| 20260505222534 | 58 | 139 | 7.8 | 16.5 | 0.00 | 0.00 | 0.00 | 41 | 1016.6 |
| 20260505222253 | 59 | 217 | 7.8 | 18.2 | 0.00 | 0.00 | 0.00 | 41 | 1016.6 |
| 20260505221522 | 59 | 203 | 7.8 | 18.2 | 0.00 | 0.00 | 0.00 | 41 | 1016.6 |
| 20260505221016 | 60 | 267 | 7.8 | 14.8 | 0.00 | 0.00 | 0.00 | 39 | 1016.6 |
| 20260505220509 | 61 | 257 | 9.6 | 17.4 | 0.00 | 0.00 | 0.00 | 39 | 1016.7 |
| 20260505220004 | 61 | 226 | 7.8 | 17.4 | 0.00 | 0.00 | 0.00 | 38 | 1016.6 |
| 20260505215458 | 61 | 291 | 6.1 | 15.6 | 0.00 | 0.00 | 0.00 | 39 | 1016.7 |
| 20260505215211 | 61 | 215 | 7.8 | 15.6 | 0.00 | 0.00 | 0.00 | 41 | 1016.6 |
| 20260505214445 | 61 | 207 | 7.8 | 15.6 | 0.00 | 0.00 | 0.00 | 39 | 1016.7 |
| 20260505213939 | 60 | 222 | 7.0 | 15.6 | 0.00 | 0.00 | 0.00 | 41 | 1016.9 |
| 20260505213434 | 60 | 215 | 7.0 | 16.5 | 0.00 | 0.00 | 0.00 | 41 | 1017.0 |
| 20260505213152 | 61 | 258 | 8.7 | 16.5 | 0.00 | 0.00 | 0.00 | 40 | 1017.4 |
| 20260505212422 | 62 | 313 | 8.7 | 14.8 | 0.00 | 0.00 | 0.00 | 39 | 1017.4 |
| 20260505211922 | 61 | 217 | 8.7 | 14.8 | 0.00 | 0.00 | 0.00 | 41 | 1017.2 |
| 20260505211422 | 61 | 257 | 8.7 | 17.4 | 0.00 | 0.00 | 0.00 | 41 | 1017.4 |
| 20260505210923 | 60 | 215 | 8.7 | 17.4 | 0.00 | 0.00 | 0.00 | 42 | 1017.5 |
| 20260505210421 | 60 | 217 | 7.8 | 15.6 | 0.00 | 0.00 | 0.00 | 43 | 1017.6 |
| 20260505205922 | 59 | 250 | 7.8 | 17.4 | 0.00 | 0.00 | 0.00 | 43 | 1017.6 |
| 20260505205644 | 59 | 244 | 7.8 | 17.4 | 0.00 | 0.00 | 0.00 | 43 | 1017.7 |
| 20260505204922 | 59 | 234 | 7.8 | 13.9 | 0.00 | 0.00 | 0.00 | 44 | 1017.9 |
| 20260505204423 | 58 | 241 | 7.8 | 17.4 | 0.00 | 0.00 | 0.00 | 46 | 1017.9 |
| 20260505203921 | 57 | 233 | 7.8 | 17.4 | 0.00 | 0.00 | 0.00 | 46 | 1018.1 |
| 20260505203422 | 57 | 288 | 6.1 | 13.9 | 0.00 | 0.00 | 0.00 | 48 | 1018.1 |
| 20260505203145 | 57 | 282 | 6.1 | 13.9 | 0.00 | 0.00 | 0.00 | 47 | 1018.2 |
| 20260505202422 | 57 | 257 | 7.8 | 14.8 | 0.00 | 0.00 | 0.00 | 47 | 1018.2 |
| 20260505201922 | 56 | 273 | 7.0 | 14.8 | 0.00 | 0.00 | 0.00 | 48 | 1018.2 |
| 20260505201422 | 55 | 246 | 7.0 | 15.6 | 0.00 | 0.00 | 0.00 | 51 | 1018.1 |
| 20260505200921 | 55 | 242 | 7.0 | 15.6 | 0.00 | 0.00 | 0.00 | 50 | 1018.2 |
| 20260505200421 | 55 | 203 | 7.8 | 17.4 | 0.00 | 0.00 | 0.00 | 51 | 1018.2 |
| 20260505195920 | 55 | 237 | 8.7 | 20.0 | 0.00 | 0.00 | 0.00 | 49 | 1018.1 |
| 20260505195420 | 55 | 272 | 8.7 | 20.0 | 0.00 | 0.00 | 0.00 | 49 | 1018.1 |
| 20260505194920 | 55 | 232 | 8.7 | 20.9 | 0.00 | 0.00 | 0.00 | 50 | 1018.1 |
| 20260505194420 | 56 | 266 | 7.8 | 20.9 | 0.00 | 0.00 | 0.00 | 49 | 1018.1 |
| 20260505193920 | 56 | 255 | 7.8 | 13.9 | 0.00 | 0.00 | 0.00 | 48 | 1018.1 |
| 20260505193645 | 56 | 259 | 7.8 | 14.8 | 0.00 | 0.00 | 0.00 | 48 | 1018.1 |
| 20260505193144 | 56 | 257 | 7.8 | 14.8 | 0.00 | 0.00 | 0.00 | 47 | 1018.0 |
| 20260505192419 | 56 | 240 | 8.7 | 13.9 | 0.00 | 0.00 | 0.00 | 47 | 1018.0 |
| 20260505191919 | 56 | 240 | 8.7 | 15.6 | 0.00 | 0.00 | 0.00 | 46 | 1018.1 |
| 20260505191417 | 56 | 265 | 8.7 | 15.6 | 0.00 | 0.00 | 0.00 | 45 | 1018.0 |
| 20260505190918 | 56 | 235 | 7.8 | 16.5 | 0.00 | 0.00 | 0.00 | 44 | 1018.1 |
| 20260505190635 | 57 | 209 | 8.7 | 16.5 | 0.00 | 0.00 | 0.00 | 45 | 1018.1 |
| 20260505185916 | 58 | 185 | 8.7 | 15.6 | 0.00 | 0.00 | 0.00 | 44 | 1018.1 |
| 20260505185415 | 58 | 234 | 7.8 | 14.8 | 0.00 | 0.00 | 0.00 | 41 | 1018.0 |
| 20260505184916 | 58 | 214 | 8.7 | 16.5 | 0.00 | 0.00 | 0.00 | 40 | 1017.9 |
| 20260505184641 | 59 | 197 | 7.0 | 16.5 | 0.00 | 0.00 | 0.00 | 39 | 1018.0 |
| 20260505183915 | 59 | 281 | 6.1 | 12.2 | 0.00 | 0.00 | 0.00 | 38 | 1018.1 |
| 20260505183415 | 59 | 214 | 7.0 | 14.8 | 0.00 | 0.00 | 0.00 | 38 | 1018.1 |
| 20260505183136 | 60 | 254 | 6.1 | 14.8 | 0.00 | 0.00 | 0.00 | 36 | 1018.1 |
| 20260505182723 | 61 | 256 | 6.1 | 14.8 | 0.00 | 0.00 | 0.00 | 35 | 1018.0 |
| 20260505182619 | 60 | 244 | 6.1 | 13.9 | 0.00 | 0.00 | 0.00 | 37 | 1017.9 |
| 20260505181412 | 59 | 200 | 5.2 | 13.9 | 0.00 | 0.00 | 0.00 | 39 | 1017.7 |
| 20260505180914 | 58 | 269 | 5.2 | 10.4 | 0.00 | 0.00 | 0.00 | 39 | 1017.9 |
| 20260505180638 | 57 | 171 | 5.2 | 10.4 | 0.00 | 0.00 | 0.00 | 40 | 1018.0 |
| 20260505175911 | 56 | 227 | 4.3 | 8.7 | 0.00 | 0.00 | 0.00 | 41 | 1018.0 |
| 20260505175412 | 56 | 173 | 4.3 | 13.0 | 0.00 | 0.00 | 0.00 | 41 | 1018.1 |
| 20260505174913 | 56 | 287 | 4.3 | 13.0 | 0.00 | 0.00 | 0.00 | 40 | 1018.5 |
| 20260505174412 | 56 | 198 | 3.5 | 12.2 | 0.00 | 0.00 | 0.00 | 41 | 1018.6 |
| 20260505173911 | 56 | 165 | 3.5 | 7.8 | 0.00 | 0.00 | 0.00 | 41 | 1018.6 |
| 20260505173849 | 56 | 310 | 2.6 | 7.8 | 0.00 | 0.00 | 0.00 | 41 | 1018.6 |
| 20260505172908 | 56 | 115 | 3.5 | 8.7 | 0.00 | 0.00 | 0.00 | 40 | 1018.5 |
| 20260505172406 | 56 | 234 | 4.3 | 8.7 | 0.00 | 0.00 | 0.00 | 40 | 1018.5 |
| 20260505171900 | 55 | 231 | 2.6 | 7.0 | 0.00 | 0.00 | 0.00 | 41 | 1018.5 |
| 20260505171355 | 55 | 295 | 3.5 | 9.6 | 0.00 | 0.00 | 0.00 | 42 | 1018.6 |
| 20260505171110 | 54 | 263 | 3.5 | 9.6 | 0.00 | 0.00 | 0.00 | 43 | 1018.6 |
| 20260505170343 | 54 | 221 | 2.6 | 10.4 | 0.00 | 0.00 | 0.00 | 43 | 1018.6 |
| 20260505165836 | 53 | 161 | 4.3 | 10.4 | 0.00 | 0.00 | 0.00 | 43 | 1018.7 |
| 20260505165331 | 53 | 271 | 4.3 | 8.7 | 0.00 | 0.00 | 0.00 | 44 | 1018.7 |
| 20260505164825 | 52 | 200 | 4.3 | 8.7 | 0.00 | 0.00 | 0.00 | 45 | 1018.9 |
| 20260505164318 | 52 | 238 | 3.5 | 8.7 | 0.00 | 0.00 | 0.00 | 46 | 1018.9 |
| 20260505163812 | 52 | 259 | 4.3 | 8.7 | 0.00 | 0.00 | 0.00 | 47 | 1019.0 |
| 20260505163307 | 51 | 211 | 5.2 | 9.6 | 0.00 | 0.00 | 0.00 | 47 | 1019.0 |
| 20260505162800 | 51 | 232 | 4.3 | 9.6 | 0.00 | 0.00 | 0.00 | 47 | 1019.0 |
| 20260505162255 | 50 | 259 | 3.5 | 8.7 | 0.00 | 0.00 | 0.00 | 48 | 1019.0 |
| 20260505161749 | 50 | 271 | 4.3 | 10.4 | 0.00 | 0.00 | 0.00 | 47 | 1019.0 |
| 20260505161505 | 50 | 180 | 5.2 | 13.0 | 0.00 | 0.00 | 0.00 | 49 | 1019.2 |
| 20260505160737 | 50 | 286 | 6.1 | 13.0 | 0.00 | 0.00 | 0.00 | 48 | 1019.2 |
| 20260505160231 | 50 | 265 | 4.3 | 12.2 | 0.00 | 0.00 | 0.00 | 48 | 1019.2 |
| 20260505152646 | 49 | 260 | 2.6 | 7.8 | 0.00 | 0.00 | 0.00 | 49 | 1019.2 |
| 20260505152141 | 49 | 355 | 3.5 | 7.8 | 0.00 | 0.00 | 0.00 | 48 | 1019.2 |
| 20260505151635 | 49 | 227 | 3.5 | 7.8 | 0.00 | 0.00 | 0.00 | 49 | 1019.2 |
| 20260505151128 | 49 | 277 | 3.5 | 7.8 | 0.00 | 0.00 | 0.00 | 49 | 1019.2 |
| 20260505150623 | 49 | 250 | 4.3 | 10.4 | 0.00 | 0.00 | 0.00 | 49 | 1019.4 |
| 20260505150117 | 50 | 192 | 6.1 | 12.2 | 0.00 | 0.00 | 0.00 | 48 | 1019.4 |
| 20260505140511 | 50 | 17 | 5.2 | 11.3 | 0.00 | 0.00 | 0.00 | 50 | 1019.2 |
| 20260505124619 | 47 | 239 | 3.5 | 7.8 | 0.00 | 0.00 | 0.00 | 46 | 1019.5 |
| 20260505124111 | 47 | 281 | 3.5 | 7.0 | 0.00 | 0.00 | 0.00 | 46 | 1019.5 |
| 20260505123353 | 47 | 322 | 3.5 | 7.0 | 0.00 | 0.00 | 0.00 | 45 | 1019.4 |
| 20260505122853 | 47 | 17 | 2.6 | 7.0 | 0.00 | 0.00 | 0.00 | 45 | 1019.4 |
| 20260505122354 | 47 | 344 | 2.6 | 7.8 | 0.00 | 0.00 | 0.00 | 44 | 1019.4 |
| 20260505122115 | 47 | 267 | 4.3 | 10.4 | 0.00 | 0.00 | 0.00 | 44 | 1019.1 |
| 20260505121614 | 47 | 246 | 4.3 | 10.4 | 0.00 | 0.00 | 0.00 | 44 | 1019.1 |
| 20260505120851 | 47 | 317 | 4.3 | 10.4 | 0.00 | 0.00 | 0.00 | 44 | 1019.1 |
| 20260505120557 | 46 | 320 | 3.5 | 7.8 | 0.00 | 0.00 | 0.00 | 45 | 1018.9 |
| 20260505120438 | 46 | 286 | 4.3 | 10.4 | 0.00 | 0.00 | 0.00 | 44 | 1019.0 |
| 20260505115351 | 46 | 322 | 2.6 | 7.8 | 0.00 | 0.00 | 0.00 | 45 | 1018.9 |
| 20260505114851 | 47 | 304 | 1.7 | 7.0 | 0.00 | 0.00 | 0.00 | 44 | 1019.0 |
| 20260505114349 | 47 | 294 | 0.9 | 4.3 | 0.00 | 0.00 | 0.00 | 44 | 1019.1 |
| 20260505114105 | 47 | 293 | 0.9 | 5.2 | 0.00 | 0.00 | 0.00 | 44 | 1019.2 |
| 20260505113345 | 47 | 311 | 0.9 | 6.1 | 0.00 | 0.00 | 0.00 | 43 | 1019.2 |
| 20260505112845 | 47 | 279 | 0.9 | 6.1 | 0.00 | 0.00 | 0.00 | 43 | 1019.2 |
| 20260505112604 | 47 | 300 | 0.9 | 3.5 | 0.00 | 0.00 | 0.00 | 43 | 1019.2 |
| 20260505111835 | 47 | 311 | 0.9 | 2.6 | 0.00 | 0.00 | 0.00 | 43 | 1019.2 |
| 20260505111328 | 48 | 296 | 0.9 | 2.6 | 0.00 | 0.00 | 0.00 | 42 | 1019.1 |
| 20260505110822 | 48 | 355 | 0.9 | 2.6 | 0.00 | 0.00 | 0.00 | 42 | 1019.0 |
| 20260505110315 | 48 | 300 | 0.9 | 2.6 | 0.00 | 0.00 | 0.00 | 42 | 1019.0 |
| 20260505102032 | 49 | 317 | 1.7 | 4.3 | 0.00 | 0.00 | 0.00 | 40 | 1019.0 |
| 20260505101306 | 49 | 303 | 2.6 | 7.0 | 0.00 | 0.00 | 0.00 | 40 | 1019.0 |
| 20260505100806 | 49 | 293 | 2.6 | 7.8 | 0.00 | 0.00 | 0.00 | 40 | 1018.9 |
| 20260505100304 | 49 | 298 | 1.7 | 7.8 | 0.00 | 0.00 | 0.00 | 40 | 1019.0 |
| 20260505095805 | 50 | 322 | 1.7 | 7.0 | 0.00 | 0.00 | 0.00 | 41 | 1018.9 |
| 20260505095301 | 50 | 0 | 1.7 | 7.0 | 0.00 | 0.00 | 0.00 | 41 | 1018.9 |
| 20260505094800 | 50 | 302 | 1.7 | 6.1 | 0.00 | 0.00 | 0.00 | 40 | 1019.0 |
| 20260505094522 | 50 | 302 | 0.9 | 6.1 | 0.00 | 0.00 | 0.00 | 40 | 1019.0 |
| 20260505093800 | 50 | 301 | 0.9 | 3.5 | 0.00 | 0.00 | 0.00 | 40 | 1019.0 |
| 20260505093301 | 50 | 297 | 2.6 | 7.8 | 0.00 | 0.00 | 0.00 | 39 | 1019.0 |
| 20260505093024 | 50 | 254 | 3.5 | 7.8 | 0.00 | 0.00 | 0.00 | 39 | 1019.0 |
| 20260505092301 | 50 | 320 | 2.6 | 6.1 | 0.00 | 0.00 | 0.00 | 39 | 1018.9 |
| 20260505091800 | 51 | 309 | 2.6 | 11.3 | 0.00 | 0.00 | 0.00 | 38 | 1018.9 |
| 20260505091303 | 51 | 208 | 3.5 | 11.3 | 0.00 | 0.00 | 0.00 | 37 | 1018.9 |
| 20260505090801 | 51 | 271 | 2.6 | 7.0 | 0.00 | 0.00 | 0.00 | 37 | 1019.0 |
| 20260505090301 | 51 | 284 | 2.6 | 7.0 | 0.00 | 0.00 | 0.00 | 36 | 1019.0 |
| 20260505085801 | 51 | 323 | 2.6 | 7.0 | 0.00 | 0.00 | 0.00 | 36 | 1019.1 |
| 20260505085301 | 51 | 355 | 1.7 | 7.0 | 0.00 | 0.00 | 0.00 | 36 | 1019.2 |
| 20260505084800 | 51 | 308 | 0.9 | 3.5 | 0.00 | 0.00 | 0.00 | 36 | 1019.2 |
| 20260505084300 | 51 | 311 | 0.9 | 3.5 | 0.00 | 0.00 | 0.00 | 36 | 1019.2 |
| 20260505083801 | 52 | 332 | 0.9 | 3.5 | 0.00 | 0.00 | 0.00 | 35 | 1019.4 |
| 20260505083259 | 52 | 355 | 0.9 | 2.6 | 0.00 | 0.00 | 0.00 | 36 | 1019.5 |
| 20260505082758 | 52 | 278 | 0.0 | 2.6 | 0.00 | 0.00 | 0.00 | 35 | 1019.8 |
| 20260505082256 | 52 | 291 | 0.9 | 4.3 | 0.00 | 0.00 | 0.00 | 35 | 1020.0 |
| 20260505081749 | 52 | 289 | 2.6 | 7.0 | 0.00 | 0.00 | 0.00 | 35 | 1020.0 |
| 20260505081243 | 52 | 292 | 3.5 | 7.0 | 0.00 | 0.00 | 0.00 | 34 | 1020.1 |
| 20260505081003 | 52 | 292 | 4.3 | 8.7 | 0.00 | 0.00 | 0.00 | 34 | 1020.0 |
| 20260505080231 | 52 | 320 | 4.3 | 8.7 | 0.00 | 0.00 | 0.00 | 34 | 1019.9 |
| 20260505075726 | 53 | 339 | 4.3 | 8.7 | 0.00 | 0.00 | 0.00 | 34 | 1019.8 |
| 20260505075703 | 53 | 321 | 5.2 | 9.6 | 0.00 | 0.00 | 0.00 | 34 | 1019.9 |
| 20260505074714 | 53 | 304 | 5.2 | 11.3 | 0.00 | 0.00 | 0.00 | 34 | 1020.0 |
| 20260505074208 | 53 | 283 | 4.3 | 11.3 | 0.00 | 0.00 | 0.00 | 33 | 1020.0 |
| 20260505073702 | 53 | 286 | 4.3 | 11.3 | 0.00 | 0.00 | 0.00 | 33 | 1019.8 |
| 20260505073156 | 53 | 319 | 5.2 | 13.0 | 0.00 | 0.00 | 0.00 | 33 | 1019.6 |
| 20260505072649 | 53 | 284 | 5.2 | 13.0 | 0.00 | 0.00 | 0.00 | 33 | 1019.6 |
| 20260505072144 | 53 | 309 | 4.3 | 11.3 | 0.00 | 0.00 | 0.00 | 33 | 1019.5 |
| 20260505071638 | 54 | 355 | 3.5 | 7.8 | 0.00 | 0.00 | 0.00 | 33 | 1019.4 |
| 20260505071132 | 54 | 344 | 4.3 | 13.0 | 0.00 | 0.00 | 0.00 | 33 | 1019.4 |
| 20260505070625 | 54 | 293 | 4.3 | 13.0 | 0.00 | 0.00 | 0.00 | 33 | 1019.5 |
| 20260505070120 | 54 | 340 | 3.5 | 10.4 | 0.00 | 0.00 | 0.00 | 33 | 1019.6 |
| 20260505065614 | 54 | 310 | 2.6 | 10.4 | 0.00 | 0.00 | 0.00 | 33 | 1019.9 |
| 20260505065108 | 55 | 312 | 2.6 | 10.4 | 0.00 | 0.00 | 0.00 | 33 | 1019.6 |
| 20260505064602 | 55 | 276 | 2.6 | 7.8 | 0.00 | 0.00 | 0.00 | 33 | 1019.8 |
| 20260505064056 | 55 | 309 | 2.6 | 7.8 | 0.00 | 0.00 | 0.00 | 33 | 1019.5 |
| 20260505063550 | 55 | 280 | 3.5 | 8.7 | 0.00 | 0.00 | 0.00 | 33 | 1019.5 |
| 20260505063043 | 55 | 258 | 3.5 | 9.6 | 0.00 | 0.00 | 0.00 | 33 | 1019.6 |
| 20260505062537 | 55 | 252 | 3.5 | 9.6 | 0.00 | 0.00 | 0.00 | 33 | 1019.6 |
| 20260505062031 | 55 | 266 | 3.5 | 9.6 | 0.00 | 0.00 | 0.00 | 33 | 1019.6 |
| 20260505061530 | 55 | 217 | 4.3 | 9.6 | 0.00 | 0.00 | 0.00 | 33 | 1019.6 |
| 20260505061030 | 55 | 239 | 5.2 | 10.4 | 0.00 | 0.00 | 0.00 | 33 | 1019.5 |
| 20260505060531 | 55 | 228 | 6.1 | 10.4 | 0.00 | 0.00 | 0.00 | 33 | 1019.6 |
| 20260505060031 | 55 | 277 | 5.2 | 12.2 | 0.00 | 0.00 | 0.00 | 33 | 1019.8 |
| 20260505055528 | 55 | 270 | 5.2 | 12.2 | 0.00 | 0.00 | 0.00 | 33 | 1019.9 |
| 20260505055250 | 55 | 300 | 3.5 | 11.3 | 0.00 | 0.00 | 0.00 | 33 | 1019.8 |
| 20260505054848 | 55 | 265 | 3.5 | 11.3 | 0.00 | 0.00 | 0.00 | 33 | 1019.6 |
| 20260505054747 | 55 | 261 | 3.5 | 11.3 | 0.00 | 0.00 | 0.00 | 33 | 1019.6 |
| 20260505053529 | 55 | 268 | 1.7 | 7.8 | 0.00 | 0.00 | 0.00 | 33 | 1019.5 |
| 20260505053029 | 55 | 253 | 0.9 | 2.6 | 0.00 | 0.00 | 0.00 | 33 | 1019.5 |
| 20260505052530 | 56 | 291 | 0.9 | 4.3 | 0.00 | 0.00 | 0.00 | 34 | 1019.5 |
| 20260505052024 | 56 | 269 | 0.9 | 4.3 | 0.00 | 0.00 | 0.00 | 34 | 1019.5 |
| 20260505051524 | 56 | 284 | 0.9 | 3.5 | 0.00 | 0.00 | 0.00 | 33 | 1019.4 |
| 20260505051025 | 56 | 36 | 1.7 | 3.5 | 0.00 | 0.00 | 0.00 | 33 | 1019.4 |
| 20260505050524 | 56 | 332 | 1.7 | 4.3 | 0.00 | 0.00 | 0.00 | 33 | 1019.5 |
| 20260505050247 | 56 | 346 | 1.7 | 4.3 | 0.00 | 0.00 | 0.00 | 32 | 1019.6 |
| 20260505041522 | 57 | 323 | 4.3 | 8.7 | 0.00 | 0.00 | 0.00 | 31 | 1019.6 |
| 20260505041022 | 57 | 302 | 3.5 | 8.7 | 0.00 | 0.00 | 0.00 | 30 | 1019.6 |
| 20260505040523 | 57 | 300 | 3.5 | 8.7 | 0.00 | 0.00 | 0.00 | 30 | 1019.6 |
| 20260505040023 | 57 | 323 | 4.3 | 8.7 | 0.00 | 0.00 | 0.00 | 29 | 1019.8 |
| 20260505035522 | 57 | 15 | 4.3 | 9.6 | 0.00 | 0.00 | 0.00 | 29 | 1019.8 |
| 20260505035023 | 57 | 333 | 4.3 | 9.6 | 0.00 | 0.00 | 0.00 | 29 | 1019.8 |
| 20260505034523 | 57 | 315 | 3.5 | 9.6 | 0.00 | 0.00 | 0.00 | 28 | 1019.8 |
| 20260505034022 | 57 | 355 | 3.5 | 10.4 | 0.00 | 0.00 | 0.00 | 28 | 1019.6 |
| 20260505033520 | 57 | 315 | 3.5 | 10.4 | 0.00 | 0.00 | 0.00 | 27 | 1019.6 |
| 20260505033021 | 57 | 331 | 4.3 | 10.4 | 0.00 | 0.00 | 0.00 | 27 | 1019.5 |
| 20260505032518 | 58 | 303 | 5.2 | 12.2 | 0.00 | 0.00 | 0.00 | 27 | 1019.5 |
| 20260505032019 | 58 | 320 | 5.2 | 12.2 | 0.00 | 0.00 | 0.00 | 27 | 1019.4 |
| 20260505031740 | 58 | 317 | 4.3 | 9.6 | 0.00 | 0.00 | 0.00 | 26 | 1019.2 |
| 20260505031505 | 58 | 300 | 4.3 | 9.6 | 0.00 | 0.00 | 0.00 | 26 | 1019.1 |
| 20260505030519 | 58 | 310 | 5.2 | 9.6 | 0.00 | 0.00 | 0.00 | 25 | 1019.1 |
| 20260505030018 | 58 | 310 | 5.2 | 13.0 | 0.00 | 0.00 | 0.00 | 25 | 1019.0 |